Probability
23 23 19 3 0 0 0 0 0 0 0 0 0 0 0 0 0 0 0 0 0 0 0 0 0 0 0 0 0 0 0 0 0 0 0 0 0 0 0 0 0 3 3 0
16 3 0 13 3 3 0 0 0 0 0 0 0 0 0 0 0 0 0 0 3 0 0 0 0 0 0 0 0 0 0 0 0 0 0 0 0 0 0 0 0 0 3 3
0 0 10 10 3 0 0 0 0 0 0 0 0 0 0 0 0 0 0 0 0 0 0 0 0 0 0 0 0 0 0 0 0 0 0 0 0 0 0 0 0 0 0 3
0 3 3 3 0 0 0 0 0 0 0 0 0 0 0 0 0 0 0 0 0 0 3 0 0 0 0 0 0 0 0 0 0 0 0 0 0 0 0 0 0 0 0 0
0 0 0 0 0 0 0 0 0 0 0 0 0 0 0 0 0 0 0 0 0 0 0 0 0 0 0 0 0 0 0 0 0 0 0 0 0 0 0 0 0 0 0 0
0 0 0 0 0 0 0 0 0 0 0 0 0 0 0 0 0 0 0 0 0 0 0 0 0 0 0 0 0 0 0 0 0 0 0 0 0 0 0 0 0 0 0 0
0 0 0 0 0 0 0 0 0 0 0 0 0 0 0 0 0 0 0 0 0 0 0 0 0 0 0 0 0 0 0 0 0 0 0 0 0 0 0 0 0 0 0 0
0 0 0 0 0 0 0 0 0 0 0 0 0 0 0 0 0 0 0 0 0 0 0 0 0 0 0 0 0 0 0 0 0 0 0 0 0 0 0 0 0 0 0 0
0 0 0 0 0 0 0 0 0 0 0 0 0 0 0 0 0 0 0 0 0 0 0 0 0 0 0 0 0 0 0 0 0 0 0 0 0 0 0 0 0 0 0 0
0 0 0 0 0 0 0 0 0 0 0 0 0 0 0 0 0 0 0 0 0 0 0 0 0 0 0 0 0 0 0 0 0 0 0 0 0 0 0 0 0 0 0 0
0 0 0 0 0 0 0 0 0 0 0 0 0 0 0 0 0 0 0 0 0 0 0 0 0 0 0 0 0 0 0 0 0 0 0 0 0 0 0 0 0 0 0 0
0 0 0 0 0 0 0 0 0 0 0 0 0 0 0 0 0 0 0 0 0 0 0 0 0 0 0 0 0 0 0 0 0 0 0 0 0 0 0 0 0 0 0 0
0 0 0 0 0 0 0 0 0 0 0 0 0 0 0 0 0 0 0 0 0 0 0 0 0 0 0 0 0 0 0 0 0 0 0 0 0 0 0 0 0 0 0 0
0 0 0 0 0 0 0 0 0 0 0 0 0 0 0 0 0 0 0 0 0 0 0 0 0 0 0 0 0 0 0 0 0 0 0 0 0 0 0 0 0 0 0 0
0 0 0 0 0 0 0 0 0 0 0 0 0 0 0 0 0 0 0 0 0 0 0 0 0 0 0 0 0 0 0 0 0 0 0 0 0 0 0 0 0 0 0 0
0 0 0 0 0 0 0 0 0 0 0 0 0 0 0 0 0 0 0 0 0 0 0 0 0 0 0 0 0 0 0 0 0 0 0 0 0 0 0 0 0 0 0 0
0 0 0 0 0 0 0 0 0 0 0 0 0 0 0 0 0 0 0 0 0 0 0 0 0 0 0 0 0 0 0 0 0 0 0 0 0 0 0 0 0 0 0 0
0 0 0 0 0 0 0 0 0 0 0 0 0 0 0 0 0 0 0 0 0 0 0 0 0 0 0 0 0 0 0 0 0 0 0 0 0 0 0 0 0 0 0 0
0 0 0 0 0 0 0 0 0 0 0 0 0 0 0 0 0 0 0 0 0 0 0 0 0 0 0 0 0 0 0 0 0 0 0 0 0 0 0 0 0 0 0 0
0 0 0 0 0 0 0 0 0 0 0 0 0 0 0 0 0 0 0 0 0 0 0 0 0 0 0 0 0 0 0 0 0 0 0 0 0 0 0 0 0 0 0 0
0 0 0 0 0 0 0 0 0 0 0 0 0 0 0 0 0 0 0 0 0 0 0 0 0 0 0 0 0 0 0 0 0 0 0 0 0 0 0 0 0 0 0 0
0 0 0 0 0 0 0 0 0 0 0 0 0 0 0 0 0 0 0 0 0 0 0 0 0 0 0 0 0 0 0 0 0 0 0 0 0 0 0 0 0 0 0 0
0 0 0 0 0 0 0 0 0 0 0 0 0 0 0 0 0 0 0 0 0 0 0 0 0 0 0 0 0 0 0 0 0 0 0 0 0 0 0 0 0 0 0 0
0 0 0 0 0 0 0 0 0 0 0 0 0 0 0 0 0 0 0 0 0 0 0 0 0 0 0 0 0 0 0 0 0 0 0 0 0 0 0 0 0 0 0 0
0 0 0 0 0 0 0 0 0 0 0 0 0 0 0 0 0 0 0 0 0 0 0 0 0 0 0 0 0 0 0 0 0 0 0 0 0 0 0 0 0 0 0 0
0 0 0 0 0 0 0 0 0 0 0 0 0 0 0 0 0 0 0 0 0 0 0 0 0 0 0 0 0 0 0 0 0 0 0 0 0 0 0 0 0 0 0 0
Height
5823 5831 5836 5840 5843 5847 5849 5852 5853 5853 5854 5854 5854 5854 5852 5851 5851 5850 5850 5850 5849 5849 5849 5848 5847 5846 5845 5843 5841 5838 5835 5832 5829 5825 5821 5817 5813 5808 5804 5800 5796 5792 5789 5786
5824 5830 5834 5838 5842 5845 5847 5850 5851 5851 5851 5852 5852 5851 5850 5849 5848 5848 5848 5847 5847 5847 5847 5847 5846 5845 5844 5842 5840 5838 5835 5831 5828 5824 5820 5816 5812 5808 5804 5799 5796 5792 5789 5786
5825 5830 5833 5837 5841 5843 5846 5847 5848 5849 5850 5850 5850 5850 5848 5847 5846 5846 5845 5845 5845 5846 5846 5846 5845 5845 5843 5841 5839 5837 5834 5831 5827 5824 5820 5816 5812 5808 5804 5800 5796 5792 5789 5786
5823 5828 5832 5836 5839 5841 5844 5845 5846 5847 5848 5847 5848 5847 5846 5844 5843 5843 5843 5843 5843 5844 5844 5844 5844 5843 5842 5841 5838 5836 5833 5830 5827 5823 5820 5816 5812 5808 5804 5800 5796 5793 5790 5787
5824 5828 5832 5835 5838 5840 5842 5843 5844 5845 5845 5845 5845 5844 5845 5842 5841 5841 5841 5841 5841 5842 5842 5843 5843 5842 5841 5839 5838 5835 5833 5830 5826 5823 5819 5815 5812 5808 5804 5800 5796 5793 5790 5788
5825 5828 5831 5834 5837 5839 5840 5842 5843 5843 5843 5844 5842 5842 5842 5840 5839 5839 5839 5839 5839 5840 5840 5841 5841 5841 5840 5838 5837 5835 5832 5829 5826 5822 5819 5815 5811 5808 5804 5801 5797 5794 5791 5788
5826 5829 5831 5834 5836 5838 5839 5841 5842 5842 5841 5841 5840 5839 5839 5837 5836 5836 5836 5837 5837 5838 5839 5839 5839 5839 5838 5837 5836 5834 5831 5828 5825 5821 5818 5815 5811 5808 5805 5801 5798 5795 5792 5789
5826 5829 5831 5833 5835 5836 5837 5839 5840 5840 5839 5838 5837 5836 5836 5834 5833 5833 5834 5834 5835 5836 5836 5837 5837 5837 5837 5836 5834 5833 5830 5827 5824 5821 5817 5814 5811 5808 5805 5801 5798 5795 5793 5790
5827 5829 5830 5831 5833 5834 5835 5836 5836 5836 5836 5835 5834 5833 5832 5830 5830 5830 5831 5832 5833 5833 5834 5835 5835 5835 5835 5834 5833 5831 5829 5826 5823 5820 5817 5814 5811 5808 5805 5802 5799 5796 5793 5791
5826 5828 5829 5830 5831 5833 5833 5833 5833 5833 5832 5832 5832 5830 5829 5827 5827 5828 5828 5829 5830 5831 5832 5832 5833 5833 5833 5832 5831 5830 5828 5825 5823 5819 5816 5813 5810 5807 5804 5802 5799 5796 5794 5791
5826 5828 5829 5829 5830 5830 5831 5831 5830 5829 5829 5828 5828 5829 5825 5824 5824 5825 5825 5826 5827 5828 5829 5830 5830 5831 5831 5830 5829 5828 5826 5824 5821 5819 5816 5813 5810 5807 5804 5801 5799 5796 5794 5791
5825 5827 5827 5828 5828 5827 5827 5827 5827 5826 5825 5824 5824 5827 5821 5821 5821 5821 5822 5822 5823 5825 5826 5827 5828 5828 5828 5828 5827 5826 5824 5823 5820 5818 5815 5812 5809 5807 5804 5801 5799 5796 5794 5791
5824 5825 5826 5826 5827 5825 5824 5823 5822 5822 5821 5820 5820 5823 5818 5817 5817 5817 5818 5819 5820 5821 5822 5823 5824 5825 5825 5825 5825 5824 5822 5821 5819 5816 5814 5811 5809 5806 5803 5801 5798 5795 5793 5790
5822 5822 5823 5823 5822 5820 5819 5819 5818 5817 5816 5816 5816 5816 5815 5813 5813 5813 5814 5815 5816 5817 5819 5820 5821 5822 5822 5822 5822 5821 5820 5819 5817 5815 5813 5810 5808 5805 5802 5800 5797 5795 5792 5790
5819 5819 5818 5817 5816 5815 5815 5814 5813 5812 5812 5811 5811 5810 5810 5809 5808 5809 5810 5811 5812 5813 5815 5816 5817 5818 5819 5819 5819 5818 5818 5816 5815 5813 5811 5809 5806 5804 5801 5799 5796 5794 5791 5788
5815 5815 5814 5813 5812 5810 5810 5810 5808 5807 5807 5806 5805 5806 5805 5803 5803 5804 5805 5806 5807 5809 5810 5812 5813 5814 5815 5815 5815 5815 5814 5814 5812 5811 5809 5807 5805 5803 5800 5798 5795 5792 5790 5787
5811 5810 5810 5809 5807 5806 5806 5805 5803 5802 5802 5801 5800 5801 5799 5798 5799 5799 5800 5801 5803 5804 5806 5807 5808 5809 5810 5811 5811 5811 5811 5810 5809 5808 5807 5805 5803 5801 5798 5796 5793 5791 5788 5785
5807 5805 5804 5803 5803 5801 5803 5800 5798 5797 5796 5795 5794 5794 5793 5793 5794 5795 5796 5797 5798 5799 5801 5802 5803 5805 5806 5806 5807 5807 5807 5806 5806 5805 5804 5802 5800 5798 5796 5794 5791 5789 5786 5784
5801 5799 5798 5797 5796 5795 5796 5794 5792 5791 5790 5789 5789 5789 5788 5789 5790 5790 5790 5791 5792 5794 5795 5797 5798 5799 5800 5801 5802 5802 5802 5802 5802 5801 5800 5799 5797 5795 5794 5791 5789 5787 5784 5781
5794 5793 5792 5790 5789 5789 5790 5788 5786 5787 5785 5784 5783 5783 5783 5784 5785 5785 5785 5786 5787 5788 5789 5791 5792 5793 5794 5795 5796 5797 5797 5797 5797 5796 5796 5795 5793 5792 5790 5788 5786 5784 5781 5779
5787 5786 5784 5783 5781 5780 5781 5780 5780 5780 5780 5778 5777 5777 5777 5777 5778 5779 5779 5780 5781 5782 5783 5784 5786 5787 5788 5789 5790 5790 5791 5791 5791 5791 5791 5790 5789 5788 5786 5785 5783 5781 5778 5776
5779 5777 5776 5775 5773 5774 5772 5771 5771 5771 5771 5770 5770 5770 5770 5770 5771 5772 5772 5773 5774 5775 5776 5777 5778 5780 5781 5782 5783 5784 5784 5785 5785 5785 5785 5784 5784 5783 5782 5780 5779 5777 5775 5773
5769 5769 5767 5766 5766 5763 5762 5761 5761 5761 5761 5761 5761 5762 5762 5762 5763 5764 5765 5765 5766 5767 5768 5769 5771 5772 5773 5774 5775 5776 5777 5778 5778 5778 5778 5778 5778 5777 5776 5775 5774 5772 5770 5768
5758 5757 5755 5754 5754 5752 5750 5749 5749 5750 5750 5751 5751 5752 5752 5753 5754 5755 5756 5757 5758 5759 5760 5761 5762 5763 5765 5766 5767 5768 5769 5770 5770 5771 5771 5771 5771 5771 5770 5769 5768 5767 5765 5763
5747 5745 5742 5741 5742 5740 5738 5737 5737 5737 5738 5739 5740 5741 5741 5742 5743 5744 5745 5747 5748 5749 5751 5752 5753 5754 5756 5757 5758 5759 5760 5761 5762 5763 5763 5763 5763 5763 5763 5762 5761 5760 5759 5758
5733 5730 5728 5727 5727 5725 5725 5724 5723 5723 5724 5725 5726 5728 5729 5729 5731 5733 5734 5736 5737 5739 5740 5742 5743 5745 5746 5747 5749 5750 5751 5752 5753 5754 5754 5755 5755 5755 5755 5755 5754 5753 5752 5751
Wind_Speed
25 23 20 18 18 16 13 13 12 13 12 12 13 14 15 14 13 12 11 10 8 7 6 5 4 2 3 4 6 8 10 11 12 14 15 15 16 17 16 15 14 12 10 9
23 21 20 20 18 16 14 13 12 12 12 12 12 13 15 14 13 12 11 10 8 7 6 6 5 3 3 4 6 8 9 11 12 13 14 15 16 16 16 15 14 13 11 9
20 20 20 18 17 16 14 13 13 12 12 12 12 12 15 14 13 12 11 10 9 8 7 6 5 4 3 4 6 8 9 11 12 13 14 15 16 16 16 16 14 13 12 10
21 20 19 18 16 15 14 14 13 12 12 12 12 12 14 14 13 12 11 10 9 8 7 7 6 4 3 4 5 7 9 11 12 13 14 15 16 16 16 16 15 13 12 11
18 17 17 17 16 15 14 13 12 11 12 12 13 13 12 13 13 12 11 10 9 9 8 7 6 5 4 4 6 7 9 11 12 13 14 14 15 15 16 16 15 14 12 11
16 16 16 15 15 14 13 12 12 11 12 13 13 13 11 12 12 11 10 10 10 9 9 8 7 6 4 4 6 7 9 11 12 13 14 14 14 14 15 15 15 14 12 11
14 14 14 14 13 12 11 11 11 12 13 13 13 13 12 12 12 11 11 11 11 10 9 8 7 6 5 5 6 7 9 11 12 13 13 13 13 13 14 14 14 13 12 11
12 12 13 13 13 12 11 11 12 13 13 14 14 13 13 13 12 12 11 12 11 11 10 9 8 7 6 5 6 8 9 11 12 12 12 12 12 13 13 14 14 13 12 11
12 12 12 12 12 12 11 12 13 14 14 14 13 12 13 14 13 12 12 12 13 12 11 10 9 8 7 6 7 8 9 10 11 12 12 11 12 12 12 13 13 13 12 11
10 11 11 12 12 12 12 13 14 14 15 14 13 13 14 15 14 13 13 14 14 14 13 11 10 9 8 7 7 8 8 9 11 11 11 11 12 12 12 12 12 12 12 11
7 9 10 11 12 13 13 13 14 15 15 15 14 12 15 15 14 14 14 15 15 15 14 13 11 10 9 8 7 7 8 9 10 10 11 11 11 12 12 11 11 12 12 11
7 8 10 12 13 14 15 16 16 17 17 16 16 13 15 15 15 15 16 16 16 16 15 14 13 12 10 9 8 8 8 8 9 10 10 10 11 11 11 11 11 12 12 12
7 8 10 12 14 15 16 17 18 19 19 18 17 14 16 16 16 17 17 17 17 17 16 16 14 13 12 10 9 8 8 8 8 9 9 10 11 11 11 11 12 12 13 12
10 11 12 14 16 17 17 18 19 20 20 19 17 16 16 17 18 18 17 17 17 18 17 17 16 14 13 12 10 9 8 8 8 9 9 9 10 11 11 11 12 12 13 13
12 13 15 16 17 18 18 19 19 20 20 20 17 17 16 19 19 18 18 18 18 18 18 17 17 16 14 13 12 10 9 8 8 9 9 9 10 10 11 12 12 13 13 13
13 14 15 16 18 18 18 18 19 19 19 19 19 17 18 20 20 19 18 18 18 18 18 18 18 17 16 14 13 12 10 9 9 9 8 9 10 10 11 12 13 13 13 14
15 16 17 17 19 19 18 17 19 19 19 19 18 17 19 20 20 19 18 18 18 19 19 19 18 18 17 16 14 13 12 11 10 9 9 9 10 10 11 12 13 13 13 14
18 19 20 19 20 21 18 19 19 20 20 20 19 19 20 20 19 19 18 18 19 20 20 20 19 19 18 17 16 15 14 13 12 11 10 10 10 11 11 12 13 13 13 14
22 22 23 23 23 21 20 21 21 21 21 22 21 21 21 20 19 19 20 20 20 20 20 20 20 20 19 19 18 17 16 15 14 13 12 12 11 11 12 12 13 13 14 14
25 26 27 27 27 25 23 24 24 24 24 24 24 23 23 22 21 22 22 22 21 22 22 22 22 21 21 21 20 19 19 18 16 15 14 13 13 12 12 13 13 14 14 14
28 29 30 30 31 30 28 27 26 27 26 26 26 25 25 24 23 23 23 23 23 23 23 23 23 23 23 22 22 21 21 20 19 17 17 15 15 14 13 13 14 14 14 15
30 32 32 33 34 34 32 32 31 30 29 29 28 28 27 26 26 25 25 25 25 25 25 25 25 25 24 24 24 23 23 22 21 20 19 18 17 16 15 15 15 15 15 16
34 35 35 36 36 37 36 36 35 34 33 32 32 31 30 30 29 28 28 28 28 28 27 27 27 26 26 26 26 26 25 24 23 22 21 20 19 18 17 17 16 16 16 16
38 38 39 39 38 39 40 40 39 39 37 36 36 35 34 33 33 32 31 31 30 30 30 29 29 28 28 28 28 27 27 26 25 24 23 22 21 21 20 19 19 18 18 18
40 41 42 42 41 42 43 43 43 43 42 41 40 39 39 38 36 36 35 34 33 33 32 32 31 30 30 30 30 29 29 28 27 27 26 25 24 23 22 22 21 21 20 20
42 43 45 45 44 45 45 46 47 47 46 45 44 43 42 42 40 39 38 38 37 36 35 35 34 33 32 32 32 31 31 30 30 29 28 27 26 26 25 24 23 23 23 22
Wind_Direction
195 197 195 195 198 205 209 219 235 247 253 258 265 275 280 282 283 282 280 277 267 259 260 263 263 287 326 348 357 357 359 2 4 4 5 5 6 7 7 6 5 3 358 353
187 188 192 196 198 202 208 220 234 247 253 264 269 276 280 282 283 280 278 273 261 251 253 255 258 275 308 339 352 356 358 0 2 2 2 4 5 6 7 8 9 9 8 7
180 186 192 195 199 204 211 223 235 249 260 271 276 281 284 283 282 278 273 265 253 244 246 247 252 264 294 331 347 352 356 358 359 360 1 2 4 6 7 9 9 11 14 15
178 185 190 194 200 205 216 229 241 253 266 276 282 287 284 283 280 275 268 258 247 239 239 241 247 256 286 323 339 347 352 355 357 359 359 1 3 6 8 10 12 14 17 20
178 185 190 196 202 211 221 234 247 260 273 283 288 290 286 282 279 272 263 252 243 238 234 235 243 253 280 315 333 343 348 352 355 356 357 359 2 6 9 12 14 16 19 22
178 186 193 200 208 217 227 241 255 268 280 287 288 289 286 280 275 266 257 248 242 237 232 234 241 251 273 305 326 337 344 348 351 353 355 359 3 6 9 12 15 17 19 22
179 188 196 204 212 223 234 247 264 277 283 287 286 287 284 276 266 258 249 243 240 235 231 234 239 249 268 295 318 331 339 345 349 352 356 359 3 6 10 12 14 16 18 19
182 194 202 209 218 228 238 251 263 275 283 288 287 285 279 273 261 253 247 241 238 233 231 233 237 248 264 287 310 325 335 343 348 352 356 360 3 5 9 12 14 16 18 19
189 202 209 219 227 234 245 255 267 277 283 287 288 282 275 271 259 251 245 241 237 233 232 233 237 248 261 280 302 318 331 340 347 352 357 0 1 4 8 11 14 14 15 16
203 214 223 230 237 245 254 261 269 278 285 288 287 281 274 268 261 253 246 242 237 233 233 234 239 247 257 274 294 311 326 337 345 352 356 359 1 2 4 8 10 12 12 12
216 230 242 244 248 255 259 266 273 277 281 287 287 281 273 265 258 253 247 241 237 235 234 235 239 245 254 267 285 303 320 332 342 348 353 356 360 1 3 5 6 8 9 8
230 239 249 252 257 263 265 269 275 280 282 281 281 277 270 264 258 253 249 242 239 237 235 236 238 243 251 261 275 294 311 326 337 344 348 353 357 360 3 4 3 4 4 4
247 249 256 264 267 269 270 272 274 276 278 281 280 276 269 263 258 253 249 245 242 239 236 236 238 243 249 257 268 282 299 316 329 337 343 348 353 355 357 358 357 358 358 358
261 260 261 262 267 272 273 274 275 276 278 280 278 272 267 264 259 255 251 247 244 241 238 237 239 242 248 254 261 272 287 304 318 329 336 342 348 350 352 352 352 352 352 352
273 269 268 268 270 271 272 274 275 276 277 278 275 269 261 260 259 257 252 247 244 241 239 238 239 242 247 252 257 265 276 291 306 317 327 336 341 345 347 347 347 347 347 347
282 279 276 275 274 274 273 273 275 276 276 276 274 270 261 258 259 256 252 248 244 241 240 240 241 243 246 250 255 260 268 280 294 306 315 324 332 337 340 342 343 343 344 344
288 286 283 280 278 277 276 273 273 275 275 275 272 265 259 258 257 256 252 247 243 240 240 241 243 244 245 249 253 257 264 272 282 293 303 312 322 329 333 336 338 339 340 341
286 285 285 284 280 278 279 273 271 271 271 272 270 265 261 259 256 255 252 247 244 241 240 241 243 244 245 248 251 256 261 266 273 282 291 300 310 319 325 330 334 335 336 338
285 284 283 283 282 281 277 273 269 267 267 268 268 266 264 261 257 253 249 245 242 240 240 241 243 244 246 248 251 255 258 262 267 273 281 289 298 307 314 321 327 331 333 334
283 282 281 281 280 280 278 274 271 268 266 267 267 266 265 262 256 251 249 245 242 241 241 242 243 244 246 248 250 253 256 259 263 267 273 280 289 297 304 312 319 324 327 329
281 279 279 279 278 278 276 274 271 268 268 268 267 266 264 262 259 254 251 248 245 244 244 244 244 245 247 248 250 252 254 257 260 263 268 273 280 288 294 302 309 314 319 322
280 279 277 276 276 276 276 273 270 269 268 266 264 264 263 262 260 257 253 250 247 246 245 245 245 246 247 248 249 251 252 255 258 260 264 268 274 280 286 292 299 305 310 315
279 278 277 275 274 275 274 272 271 269 267 265 263 263 262 261 260 258 256 252 250 248 247 247 247 247 248 248 248 250 251 253 256 258 261 264 269 274 279 285 291 296 303 308
280 279 277 275 274 273 272 271 269 267 265 264 263 262 262 261 259 257 256 255 253 250 249 247 248 248 248 248 248 249 251 252 254 256 259 262 265 270 274 279 284 289 295 301
282 281 278 276 274 271 269 269 268 267 266 264 261 261 260 259 259 258 256 254 254 253 251 249 248 248 248 248 249 249 250 251 253 255 257 260 263 267 271 275 279 284 289 294
283 280 278 276 273 270 268 267 267 266 265 263 262 260 259 259 258 257 256 255 254 253 253 251 250 249 249 249 249 249 250 251 252 254 256 259 262 265 268 272 276 280 285 289